sat.trackr.live / text

‹ back to catalog

STARLINK-34709

NORAD 64844 · 2025-152C

PAYLOAD ACTIVE UNKNOWN

§ Identity

Operator
Country
US
Launch date
2025-07-19
Launch site
AFWTR
Launch vehicle
Mass (kg)
RCS (m²)

Purposes: comms

External: N2YO · Heavens-Above · Gunter

§ Orbital elements

Epoch: 2026-05-25T02:32:25.508256Z

Period
95.64 min
Inclination
97.4511°
Eccentricity
0.0002052
Mean motion
15.05657001 rev/d
Perigee alt
548.1 km
Apogee alt
550.9 km
Semi-major
6,927.6 km
B*
1.8039e-4
RAAN
0.4161°
Arg perigee
87.8930°
Mean anomaly
272.2532°
Rev number
4,691

§ Raw data

STARLINK-347091 64844U 25152C   26145.10585079  .00002546  00000+0  18039-3 0  99942 64844  97.4511   0.4161 0002052  87.8930 272.2532 15.05657001 46914

JSON: /api/v1/satellites/64844 · /tle

For live sub-satellite position, see the globe view (requires WebGL).

§ Visibility from observer

Set your observer location to see the next 7 days of passes ≥ 10°. The values pass through the URL so the page stays shareable.

No JS? Fill the form by hand. The geolocation button needs JavaScript.